Погода в Гелдагане

Россия / Чеченская Республика     43°12′51″N   46°02′22″E
темп.,
°C
ветер,
м/с
пор.,
м/с
влажн.,
%
обл.,
%
осадки,
мм/ч
давл.,
гПа
погр.,
м
28 февраля, вс
вс2800:00+5ю227863 0.0 101622
03:00+4юв117939 0.0 101622
06:00+4всв128410 0.0 101722
09:00+4юз118854 0.0 101636
12:00+5зюз1187100 0.1 1015152
15:00+5зсз1290100 0.2 1015229
18:00+4юз1297100 0.8 101654
21:00+4зюз2397100 1.8 1018119
1 марта, пн
пн100:00+3зсз2399100 1.6 1019194
03:00+3с2498100 3.5 1019214
06:00+2ссз1298100 1.3 1021163
09:00+2ссз2397100 3.1 1023224
12:00+2зсз1295100 1.3 1024174
15:00+3з1292100 1.4 1024215
18:00+3юз128295 0.0 1026111
21:00+2ююз118382 0.0 102824
2 марта, вт
вт200:00+1ю2282100 0.0 102827
03:000ююз118578 0.0 102822
06:000ююз12848 0.0 102821
09:00+3зюз117138 0.0 1028270
12:00+6с115749 0.0 1026762
15:00+7с215025 0.0 10241102
18:00+5зсз01580 0.0 102366
21:00+3ююз227024 0.0 102446
3 марта, ср
ср300:00+2ююз227717 0.0 102334
03:00+1ююз237758 0.0 102252
06:00+1юз2497100 0.1 1022177
09:00+3зюз1287100 0.3 1021335
12:00+5зсз2467100 0.0 1020771
15:00+7зсз4951100 0.1 10191729
18:00+4сз5784100 0.4 1020557
21:00+2з4794100 3.9 1022478
4 марта, чт
чт400:00+2зсз4796100 2.1 1023467
03:00+1з6984100 4.1 1025741
06:00+1з5976100 0.1 1027731
09:00+2з6863100 0.1 10281285
12:00+5з575058 0.0 10271323
15:00+6зсз354229 0.0 10261410
18:00+4зюз12520 0.0 1028120
21:00+1ююв22670 0.0 102932